User: anonymous   Login
Location: Unspecified
(0.0000°N, 0.0000°E)
Time: 12:28:51
(UTC+00:00)
Language:

SCD-1 - Orbit

View from above orbital plane
View from above orbital plane
View from above satellite
View from above satellite

Ground track
Ground track

The orbit data is extracted from the following two-line orbital elements,

1 22490U 93009B   17204.94430292 +.00000210 +00000-0 +76444-5 0  9998
2 22490 024.9705 077.4583 0042989 003.1607 111.7009 14.44491173290647
Epoch (UTC): 23 July 2017 22:39:47
Eccentricity: 0.0042989
inclination: 24.9705°
perigee height: 713 km
apogee height: 774 km
right ascension of ascending node: 77.4583°
argument of perigee: 3.1607°
revolutions per day: 14.44491173
mean anomaly at epoch: 111.7009°
orbit number at epoch: 29064

The dashed part of the orbit path shows where the satellite is in the earth's shadow,  

DLR